Regional Weather Roundup
Issued by NWS

Home | Current Version | Previous Version | Text Only | Print | Product List | Glossary Off
Versions: 1 2 3 4 5 6 7 8 9 10 11 12 13 14 15 16 17 18 19 20 21 22 23 24 25 26 27 28 29 30 31 32 33 34 35 36 37 38 39 40 41 42 43 44 45 46 47 48 49 50

000
ASUS43 KDMX 201507
RWRIA

WEATHER ROUNDUP FOR IOWA
NATIONAL WEATHER SERVICE DES MOINES IA
1000 AM CDT MON OCT 20 2014

NOTE: "FAIR" INDICATES FEW OR NO CLOUDS BELOW 12,000 FEET WITH NO
SIGNIFICANT WEATHER AND/OR OBSTRUCTIONS TO VISIBILITY.

* - THESE STATIONS ARE NOT NWS STATIONS...THUS NOT UNDER NWS
QUALITY CONTROL.  THEY ALSO DO NOT REPORT WEATHER SUCH
AS PRECIPITATION OR FOG.

IAZ001>003-012>014-020>022-031>034-043>046-201600-
   NORTHWEST IOWA

CITY           SKY/WX    TMP DP  RH WIND       PRES   REMARKS
CARROLL *      SUNNY     55  45  67 VRB3      30.07S
CHEROKEE *     SUNNY     46  45  93 CALM      30.09R
DENISON *      SUNNY     50  46  87 CALM      30.07S
LE MARS *      SUNNY     48  43  81 CALM      30.10S
ORANGE CITY *  SUNNY     54  43  66 NW7       30.09S
SHELDON *      SUNNY     50  43  76 NW7       30.08S
SIOUX CITY     SUNNY     52  44  74 W6        30.11R
SPENCER        SUNNY     52  43  71 NW7       30.07S
STORM LAKE *   SUNNY     54  41  62 NW8       30.09R
$$

IAZ055>058-069>071-079>083-090>094-201600-
   SOUTHWEST IOWA

CITY           SKY/WX    TMP DP  RH WIND       PRES   REMARKS
ATLANTIC *     SUNNY     54  46  76 CALM      30.08R
AUDUBON *      SUNNY     57  43  58 CALM      30.08R
CLARINDA *     SUNNY     55  48  76 N5        30.09S
COUNCIL BLFS * SUNNY     55  46  71 N5        30.08R
CRESTON *      SUNNY     57  45  62 NE10      30.07R
HARLAN  *      SUNNY     54  46  76 NE5       30.12R
LAMONI         SUNNY     56  46  69 N7        30.06R
RED OAK *      SUNNY     55  46  71 VRB5      30.09R
SHENANDOAH *   SUNNY     55  46  71 NE5       30.09S
$$

IAZ047>049-059>061-072>074-084-201600-
   CENTRAL IOWA

CITY           SKY/WX    TMP DP  RH WIND       PRES   REMARKS
AMES           SUNNY     56  44  64 N6        30.04R
ANKENY *       SUNNY     55  45  67 NW5       30.04S
CHARITON *     SUNNY     55  45  67 N5        30.05R
DES MOINES     SUNNY     56  45  66 NW3       30.05R
GRINNELL*      SUNNY     54  45  71 NW9       30.03S
KNOXVILLE *    SUNNY     55  43  62 N7        30.03R
MARSHALLTOWN   SUNNY     53  45  74 NW7       30.02R
PELLA *        SUNNY     57  46  67 N8        30.04S
PERRY *          N/A     55  45  67 NW3       30.06S
$$

IAZ004>006-015-016-023>025-035-036-201600-
   NORTH CENTRAL IOWA

CITY           SKY/WX    TMP DP  RH WIND       PRES   REMARKS
ALGONA *       SUNNY     57  43  58 NW10      30.05R
CLARION *      SUNNY     52  45  76 NW7       30.04S
ESTHERVILLE    SUNNY     53  41  63 NW13      30.05R
FORT DODGE *   SUNNY     54  43  66 CALM      30.06S
MASON CITY     SUNNY     55  43  63 NW13      30.03R
FOREST CITY *  SUNNY     54  45  71 W10       30.02S
IOWA FALLS *     N/A     54  43  66 W6        30.04S
$$

IAZ007>011-017>019-026>030-037>042-050>054-066-201600-
   NORTHEAST IOWA

CITY           SKY/WX    TMP DP  RH WIND       PRES   REMARKS
CEDAR RAPIDS   SUNNY     53  46  77 NW12      29.98R
CHARLES CITY * SUNNY     52  45  76 NW10      30.01S
CLINTON *      SUNNY     55  43  62 N17       29.95S
DECORAH *      SUNNY     52  43  71 VRB5      29.97R
DUBUQUE        SUNNY     54  44  69 N15       29.94R
MONTICELLO *   SUNNY     55  46  71 N10       29.96R
OELWEIN *      SUNNY     54  45  71 NW13      29.99R
WATERLOO       SUNNY     53  44  71 NW9       30.00R
$$

IAZ064-065-067-068-078-201600-
   EAST CENTRAL IOWA

CITY           SKY/WX    TMP DP  RH WIND       PRES   REMARKS
DAVENPORT      SUNNY     56  43  61 NW17      29.94S
IOWA CITY      SUNNY     53  45  74 NW10      30.00R
MT. PLEASANT * SUNNY     55  45  67 NW9       29.99S
MUSCATINE *    SUNNY     55  45  67 NW10G20   29.98R
QUAD CITIES    SUNNY     56  45  66 N14       29.94R
$$

IAZ062-063-075>077-085>089-095>099-201600-
   SOUTHEAST IOWA

CITY           SKY/WX    TMP DP  RH WIND       PRES   REMARKS
BURLINGTON     SUNNY     58  46  64 NW10      29.97R
FAIRFIELD *    SUNNY     57  45  62 NW12      30.01S
FORT MADISON * SUNNY     61  46  59 NW9       29.99S
KEOKUK *       SUNNY     59  46  63 NW9G15    29.99R
OSKALOOSA *      N/A     55  45  67 N9        30.03R
CENTERVILLE *  SUNNY     57  46  67 N7        30.05S
OTTUMWA        SUNNY     56  45  66 N12       30.02R
WASHINGTON *   SUNNY     57  46  67 NW12      30.00R
$$

ABBREVIATIONS USED IN REMARKS
   TC - TEMPERATURES IN CELSIUS
  WCI - WIND CHILL INDEX
   HX - HEAT INDEX
  VSB - VISIBILITY
$$




USA.gov is the U.S. government's official web portal to all federal, state and local government web resources and services.